Weather History for Abilene, TX

Change the Weather History Date:

Tuesday, May 21, 2013

  Actual Average Record
Temperature  
Mean Temperature 71 °F 74 °F  
Max Temperature 83 °F 86 °F 101 °F (1953)
Min Temperature 58 °F 63 °F 47 °F (1911)
Degree Days  
Heating Degree Days 0 0  
Month to date heating degree days 50 13  
Since 1 July heating degree days 2301 2555  
Cooling Degree Days 6 10  
Month to date cooling degree days 159 157  
Year to date cooling degree days 335 290  
Growing Degree Days 22 (Base 50)    
Moisture  
Dew Point 58 °F    
Average Humidity 57    
Maximum Humidity 84    
Minimum Humidity 30    
Precipitation  
Precipitation 0.00 in 0.11 in 4.25 in (1938)
Month to date precipitation 1.39 1.94  
Year to date precipitation 5.61 7.70  
Sea Level Pressure  
Sea Level Pressure 29.76 in    
Wind  
Wind Speed 13 mph (ESE)    
Max Wind Speed 33 mph    
Max Gust Speed 40 mph    
Visibility 10 miles    
Events      
T = Trace of Precipitation, MM = Missing Value Source: NWS Daily Summary

Daily Weather History Graph

Daily Weather History Graph

Search for Another Location

Airport:

Trip Planner

Search our weather history database for the weather conditions in past years. The results will help you decide how hot, cold, wet, or windy it might be!

Date:

Astronomy

May. 21, 2013 Rise Set
Actual Time 6:36 AM CDT 8:34 PM CDT
Civil Twilight 6:09 AM CDT 9:01 PM CDT
Nautical Twilight 5:36 AM CDT 9:35 PM CDT
Astronomical Twilight 5:00 AM CDT 10:10 PM CDT
Moon 5:00 PM CDT (5/21) 3:52 AM CDT (5/21)
Length of Visible Light 14h 52m
Length of Day
13h 57m
Waxing Gibbous, 84% of the Moon is Illuminated
May 21
Waxing Gibbous
May 24
Full
May 31
Last Quarter
Jun 8
New
Jun 16
First Quarter

Hourly Weather History & Observations

Time (CDT) Temp. Heat Index Dew Point Humidity Pressure Visibility Wind Dir Wind Speed Gust Speed Precip Events Conditions
12:52 AM 75.9 °F - 64.0 °F 67% 29.65 in 10.0 mi SSE 24.2 mph 31.1 mph N/A   Clear
1:52 AM 77.0 °F - 66.9 °F 71% 29.63 in 10.0 mi South 19.6 mph 31.1 mph N/A   Clear
2:52 AM 75.9 °F - 66.9 °F 74% 29.62 in 10.0 mi South 13.8 mph - N/A   Clear
3:52 AM 75.0 °F - 68.0 °F 79% 29.62 in 10.0 mi South 11.5 mph - N/A   Clear
4:52 AM 75.0 °F - 68.0 °F 79% 29.62 in 10.0 mi South 11.5 mph - N/A   Clear
5:52 AM 73.9 °F - 68.0 °F 82% 29.62 in 10.0 mi South 13.8 mph - N/A   Clear
6:52 AM 73.0 °F - 68.0 °F 84% 29.62 in 10.0 mi SSE 12.7 mph - N/A   Clear
7:52 AM 73.9 °F - 68.0 °F 82% 29.65 in 10.0 mi South 13.8 mph 23.0 mph N/A   Clear
8:13 AM 75.2 °F - 68.0 °F 78% 29.78 in 10.0 mi West 6.9 mph - N/A   Mostly Cloudy
8:52 AM 75.0 °F - 68.0 °F 79% 29.72 in 10.0 mi SSW 3.5 mph - N/A   Overcast
9:49 AM 78.8 °F - 69.8 °F 74% 29.80 in 9.0 mi South 12.7 mph - N/A   Mostly Cloudy
9:52 AM 79.0 °F - 69.1 °F 72% 29.72 in 10.0 mi South 13.8 mph 20.7 mph N/A   Mostly Cloudy
10:10 AM 78.8 °F - 69.8 °F 74% 29.80 in 10.0 mi South 12.7 mph - N/A   Mostly Cloudy
10:31 AM 80.6 °F 83.9 °F 69.8 °F 70% 29.79 in 9.0 mi South 13.8 mph 21.9 mph N/A   Scattered Clouds
10:52 AM 81.0 °F 84.1 °F 69.1 °F 67% 29.71 in 9.0 mi SSW 16.1 mph 23.0 mph N/A   Scattered Clouds
11:26 AM 69.8 °F - 60.8 °F 73% 29.83 in 10.0 mi NNW 20.7 mph 32.2 mph N/A   Scattered Clouds
11:38 AM 64.4 °F - 57.2 °F 77% 29.84 in 10.0 mi North 26.5 mph 40.3 mph N/A   Mostly Cloudy
11:52 AM 63.0 °F - 55.9 °F 78% 29.81 in 10.0 mi North 27.6 mph 38.0 mph N/A   Overcast
12:02 PM 62.6 °F - 53.6 °F 72% 29.89 in 10.0 mi North 26.5 mph 39.1 mph N/A   Overcast
12:52 PM 62.1 °F - 51.1 °F 67% 29.86 in 10.0 mi North 19.6 mph 32.2 mph N/A   Overcast
1:23 PM 64.4 °F - 48.2 °F 56% 29.93 in 10.0 mi North 11.5 mph 25.3 mph N/A   Overcast
1:52 PM 68.0 °F - 46.9 °F 47% 29.85 in 10.0 mi North 23.0 mph 29.9 mph N/A   Overcast
2:52 PM 73.0 °F - 46.9 °F 39% 29.82 in 10.0 mi North 15.0 mph 27.6 mph N/A   Clear
3:52 PM 75.9 °F - 48.0 °F 37% 29.81 in 10.0 mi NNE 15.0 mph - N/A   Clear
4:52 PM 77.0 °F - 46.0 °F 33% 29.78 in 10.0 mi North 12.7 mph 21.9 mph N/A   Clear
5:52 PM 79.0 °F - 44.1 °F 29% 29.76 in 10.0 mi NNW 15.0 mph 21.9 mph N/A   Clear
6:52 PM 78.1 °F - 45.0 °F 31% 29.76 in 10.0 mi NNE 9.2 mph - N/A   Clear
7:52 PM 77.0 °F - 45.0 °F 32% 29.78 in 10.0 mi North 9.2 mph - N/A   Clear
8:52 PM 73.0 °F - 45.0 °F 37% 29.81 in 10.0 mi NNE 4.6 mph - N/A   Clear
9:52 PM 70.0 °F - 46.0 °F 42% 29.82 in 10.0 mi East 4.6 mph - N/A   Clear
10:52 PM 66.0 °F - 46.0 °F 48% 29.84 in 10.0 mi East 6.9 mph - N/A   Clear
11:52 PM 61.0 °F - 48.0 °F 62% 29.87 in 10.0 mi SSE 5.8 mph - N/A   Clear